******** Week 149 almanac for PRN-1 ******** ID: 1 Health: 0 Eccentricity: 0.01138734817 Time of Applicability(s): 319488 Orbital Inclination(rad): 0.986699586 Rate of Right Ascen(r/s): -7.954617056e-09 SQRT(A) (m 1/2): 5153.621582 Right Ascen at Week(rad): -1.911910062 Argument of Perigee(rad): 0.8815539668 Mean Anom(rad): -2.748942259 Af0(s): 0.0003399071167 Af1(s/s): -1.091394e-11 week: 149 ******** Week 149 almanac for PRN-2 ******** ID: 2 Health: 0 Eccentricity: 0.02067089081 Time of Applicability(s): 319488 Orbital Inclination(rad): 0.9650620679 Rate of Right Ascen(r/s): -8.034620388e-09 SQRT(A) (m 1/2): 5153.643066 Right Ascen at Week(rad): -2.001226992 Argument of Perigee(rad): -1.441606008 Mean Anom(rad): -2.604915844 Af0(s): -0.0005147595581 Af1(s/s): 0 week: 149 ******** Week 149 almanac for PRN-3 ******** ID: 3 Health: 0 Eccentricity: 0.003893375397 Time of Applicability(s): 319488 Orbital Inclination(rad): 0.9725102637 Rate of Right Ascen(r/s): -8.091765626e-09 SQRT(A) (m 1/2): 5153.629883 Right Ascen at Week(rad): -0.8763603033 Argument of Perigee(rad): 0.9567100373 Mean Anom(rad): 2.381259872 Af0(s): -9.797766113e-05 Af1(s/s): -1.818989e-11 week: 149 ******** Week 149 almanac for PRN-4 ******** ID: 4 Health: 0 Eccentricity: 0.001699447632 Time of Applicability(s): 319488 Orbital Inclination(rad): 0.9615986269 Rate of Right Ascen(r/s): -7.611745631e-09 SQRT(A) (m 1/2): 5153.612305 Right Ascen at Week(rad): 0.2046602264 Argument of Perigee(rad): -3.059823914 Mean Anom(rad): -0.9685995119 Af0(s): -0.0001492275146 Af1(s/s): 3.637979e-12 week: 149 ******** Week 149 almanac for PRN-5 ******** ID: 5 Health: 0 Eccentricity: 0.005875587463 Time of Applicability(s): 319488 Orbital Inclination(rad): 0.9594834112 Rate of Right Ascen(r/s): -8.240343243e-09 SQRT(A) (m 1/2): 5153.614746 Right Ascen at Week(rad): -0.9167830939 Argument of Perigee(rad): 1.008143709 Mean Anom(rad): -0.09474615862 Af0(s): -5.652557373e-05 Af1(s/s): 0 week: 149 ******** Week 149 almanac for PRN-6 ******** ID: 6 Health: 0 Eccentricity: 0.002697467804 Time of Applicability(s): 319488 Orbital Inclination(rad): 0.9860823984 Rate of Right Ascen(r/s): -7.920329913e-09 SQRT(A) (m 1/2): 5153.623047 Right Ascen at Week(rad): -1.920182548 Argument of Perigee(rad): -0.956935116 Mean Anom(rad): -2.422229443 Af0(s): 0.0001605326294 Af1(s/s): 1.091394e-11 week: 149 ******** Week 149 almanac for PRN-7 ******** ID: 7 Health: 0 Eccentricity: 0.01554441452 Time of Applicability(s): 319488 Orbital Inclination(rad): 0.9506989744 Rate of Right Ascen(r/s): -8.080336578e-09 SQRT(A) (m 1/2): 5153.630371 Right Ascen at Week(rad): 1.22341709 Argument of Perigee(rad): -2.290606326 Mean Anom(rad): 2.863833525 Af0(s): 0.0002456978271 Af1(s/s): 3.637979e-12 week: 149 ******** Week 149 almanac for PRN-8 ******** ID: 8 Health: 0 Eccentricity: 0.007303237915 Time of Applicability(s): 319488 Orbital Inclination(rad): 0.9650620679 Rate of Right Ascen(r/s): -7.623174678e-09 SQRT(A) (m 1/2): 5153.679199 Right Ascen at Week(rad): -2.991480126 Argument of Perigee(rad): 0.106354004 Mean Anom(rad): -0.4875920472 Af0(s): -4.446678467e-05 Af1(s/s): 0 week: 149 ******** Week 149 almanac for PRN-9 ******** ID: 9 Health: 0 Eccentricity: 0.00225019455 Time of Applicability(s): 319488 Orbital Inclination(rad): 0.9545938475 Rate of Right Ascen(r/s): -7.703178011e-09 SQRT(A) (m 1/2): 5153.579102 Right Ascen at Week(rad): 0.1517195384 Argument of Perigee(rad): 1.869985873 Mean Anom(rad): -0.119943366 Af0(s): -0.0002796131714 Af1(s/s): 0 week: 149 ******** Week 149 almanac for PRN-10 ******** ID: 10 Health: 0 Eccentricity: 0.007504463196 Time of Applicability(s): 319488 Orbital Inclination(rad): 0.9723364924 Rate of Right Ascen(r/s): -8.080336578e-09 SQRT(A) (m 1/2): 5153.630371 Right Ascen at Week(rad): -0.8791477591 Argument of Perigee(rad): -2.512677759 Mean Anom(rad): 1.499770695 Af0(s): -0.0002547419189 Af1(s/s): -1.091394e-11 week: 149 ******** Week 149 almanac for PRN-11 ******** ID: 11 Health: 255 Eccentricity: 0.0002679824829 Time of Applicability(s): 319488 Orbital Inclination(rad): 0.9618023587 Rate of Right Ascen(r/s): -8.206056101e-09 SQRT(A) (m 1/2): 5153.71875 Right Ascen at Week(rad): -1.868156032 Argument of Perigee(rad): 2.872599611 Mean Anom(rad): -0.6335572851 Af0(s): -6.858436279e-05 Af1(s/s): 1.091394e-11 week: 149 ******** Week 149 almanac for PRN-12 ******** ID: 12 Health: 0 Eccentricity: 0.008688926697 Time of Applicability(s): 319488 Orbital Inclination(rad): 0.9701493714 Rate of Right Ascen(r/s): -7.874613723e-09 SQRT(A) (m 1/2): 5153.543945 Right Ascen at Week(rad): 2.33653437 Argument of Perigee(rad): 1.247269068 Mean Anom(rad): 2.212224627 Af0(s): -0.000135661377 Af1(s/s): -7.275958e-12 week: 149 ******** Week 149 almanac for PRN-13 ******** ID: 13 Health: 0 Eccentricity: 0.005807876587 Time of Applicability(s): 319488 Orbital Inclination(rad): 0.96901087 Rate of Right Ascen(r/s): -7.554600394e-09 SQRT(A) (m 1/2): 5153.635742 Right Ascen at Week(rad): 0.3045112903 Argument of Perigee(rad): 0.9571845377 Mean Anom(rad): -1.053372923 Af0(s): 0.000207260437 Af1(s/s): 7.275958e-12 week: 149 ******** Week 149 almanac for PRN-14 ******** ID: 14 Health: 0 Eccentricity: 0.001442432404 Time of Applicability(s): 319488 Orbital Inclination(rad): 0.9535452278 Rate of Right Ascen(r/s): -8.057478483e-09 SQRT(A) (m 1/2): 5153.587402 Right Ascen at Week(rad): 2.305220714 Argument of Perigee(rad): 3.021273284 Mean Anom(rad): 2.274336992 Af0(s): -6.707701416e-05 Af1(s/s): -3.637979e-12 week: 149 ******** Week 149 almanac for PRN-15 ******** ID: 15 Health: 0 Eccentricity: 0.01393795013 Time of Applicability(s): 319488 Orbital Inclination(rad): 0.9304576185 Rate of Right Ascen(r/s): -7.966046103e-09 SQRT(A) (m 1/2): 5153.692383 Right Ascen at Week(rad): 0.04569322803 Argument of Perigee(rad): 1.075111558 Mean Anom(rad): -1.481311993 Af0(s): -6.556966553e-05 Af1(s/s): 3.637979e-12 week: 149 ******** Week 149 almanac for PRN-16 ******** ID: 16 Health: 0 Eccentricity: 0.01276397705 Time of Applicability(s): 319488 Orbital Inclination(rad): 0.9701134187 Rate of Right Ascen(r/s): -7.840326581e-09 SQRT(A) (m 1/2): 5153.54834 Right Ascen at Week(rad): 2.355151489 Argument of Perigee(rad): 0.708655307 Mean Anom(rad): 0.3578201188 Af0(s): -0.000371561438 Af1(s/s): -3.637979e-12 week: 149 ******** Week 149 almanac for PRN-17 ******** ID: 17 Health: 0 Eccentricity: 0.01359796524 Time of Applicability(s): 319488 Orbital Inclination(rad): 0.9801801676 Rate of Right Ascen(r/s): -7.463168014e-09 SQRT(A) (m 1/2): 5153.72168 Right Ascen at Week(rad): -2.909617758 Argument of Perigee(rad): -1.498001149 Mean Anom(rad): -0.5775486355 Af0(s): 0.0004552192871 Af1(s/s): 3.637979e-12 week: 149 ******** Week 149 almanac for PRN-18 ******** ID: 18 Health: 0 Eccentricity: 0.002097606659 Time of Applicability(s): 319488 Orbital Inclination(rad): 0.9704909218 Rate of Right Ascen(r/s): -8.114623721e-09 SQRT(A) (m 1/2): 5153.569336 Right Ascen at Week(rad): -1.904108332 Argument of Perigee(rad): 3.10704925 Mean Anom(rad): -2.547973548 Af0(s): 0.0001884185791 Af1(s/s): -7.275958e-12 week: 149 ******** Week 149 almanac for PRN-19 ******** ID: 19 Health: 0 Eccentricity: 0.008977413177 Time of Applicability(s): 319488 Orbital Inclination(rad): 0.9789278161 Rate of Right Ascen(r/s): -7.497455156e-09 SQRT(A) (m 1/2): 5153.646973 Right Ascen at Week(rad): -2.864762303 Argument of Perigee(rad): 2.008460596 Mean Anom(rad): 1.835023395 Af0(s): 9.496296387e-05 Af1(s/s): 3.637979e-12 week: 149 ******** Week 149 almanac for PRN-20 ******** ID: 20 Health: 0 Eccentricity: 0.005149841309 Time of Applicability(s): 319488 Orbital Inclination(rad): 0.9416329082 Rate of Right Ascen(r/s): -8.457495146e-09 SQRT(A) (m 1/2): 5153.69043 Right Ascen at Week(rad): -1.030862803 Argument of Perigee(rad): 3.13387444 Mean Anom(rad): -1.73494126 Af0(s): 0.0004084914795 Af1(s/s): 0 week: 149 ******** Week 149 almanac for PRN-21 ******** ID: 21 Health: 0 Eccentricity: 0.02460479736 Time of Applicability(s): 319488 Orbital Inclination(rad): 0.95930964 Rate of Right Ascen(r/s): -8.057478483e-09 SQRT(A) (m 1/2): 5153.530273 Right Ascen at Week(rad): -2.002867708 Argument of Perigee(rad): -1.003936123 Mean Anom(rad): -0.3895333739 Af0(s): 0.0001251099365 Af1(s/s): 0 week: 149 ******** Week 149 almanac for PRN-22 ******** ID: 22 Health: 0 Eccentricity: 0.01290369034 Time of Applicability(s): 319488 Orbital Inclination(rad): 0.9617304534 Rate of Right Ascen(r/s): -7.634603726e-09 SQRT(A) (m 1/2): 5153.616699 Right Ascen at Week(rad): 0.2529540312 Argument of Perigee(rad): -1.872323546 Mean Anom(rad): -0.699839786 Af0(s): 0.0001695767212 Af1(s/s): 7.275958e-12 week: 149 ******** Week 149 almanac for PRN-23 ******** ID: 23 Health: 0 Eccentricity: 0.001973152161 Time of Applicability(s): 319488 Orbital Inclination(rad): 0.9673750233 Rate of Right Ascen(r/s): -8.160339911e-09 SQRT(A) (m 1/2): 5153.650879 Right Ascen at Week(rad): -0.9040142768 Argument of Perigee(rad): 2.964426862 Mean Anom(rad): 2.817595015 Af0(s): 7.536743164e-07 Af1(s/s): -3.637979e-12 week: 149 ******** Week 149 almanac for PRN-24 ******** ID: 24 Health: 0 Eccentricity: 0.012342453 Time of Applicability(s): 319488 Orbital Inclination(rad): 0.9342566178 Rate of Right Ascen(r/s): -8.228914196e-09 SQRT(A) (m 1/2): 5153.631836 Right Ascen at Week(rad): 1.140617706 Argument of Perigee(rad): 0.8075401428 Mean Anom(rad): -2.452713566 Af0(s): 0.0002170582031 Af1(s/s): -3.637979e-12 week: 149 ******** Week 149 almanac for PRN-25 ******** ID: 25 Health: 0 Eccentricity: 0.01050806046 Time of Applicability(s): 319488 Orbital Inclination(rad): 0.9575359747 Rate of Right Ascen(r/s): -8.057478483e-09 SQRT(A) (m 1/2): 5153.648926 Right Ascen at Week(rad): 2.259788517 Argument of Perigee(rad): 0.9814364893 Mean Anom(rad): 1.956811208 Af0(s): 0.0002261022949 Af1(s/s): 3.637979e-12 week: 149 ******** Week 149 almanac for PRN-26 ******** ID: 26 Health: 0 Eccentricity: 0.006881713867 Time of Applicability(s): 319488 Orbital Inclination(rad): 0.9383552227 Rate of Right Ascen(r/s): -8.251772291e-09 SQRT(A) (m 1/2): 5153.634766 Right Ascen at Week(rad): 2.212761295 Argument of Perigee(rad): 0.3701676155 Mean Anom(rad): 1.304115865 Af0(s): 0.0001454591431 Af1(s/s): 3.637979e-12 week: 149 ******** Week 149 almanac for PRN-27 ******** ID: 27 Health: 0 Eccentricity: 0.01024341583 Time of Applicability(s): 319488 Orbital Inclination(rad): 0.9737626152 Rate of Right Ascen(r/s): -7.543171346e-09 SQRT(A) (m 1/2): 5153.61084 Right Ascen at Week(rad): -2.972055945 Argument of Perigee(rad): 0.6391404359 Mean Anom(rad): -0.5284282936 Af0(s): 9.64703125e-05 Af1(s/s): 1.455192e-11 week: 149 ******** Week 149 almanac for PRN-29 ******** ID: 29 Health: 0 Eccentricity: 0.001840591431 Time of Applicability(s): 319488 Orbital Inclination(rad): 0.9821875253 Rate of Right Ascen(r/s): -7.451738966e-09 SQRT(A) (m 1/2): 5153.713867 Right Ascen at Week(rad): -2.896609631 Argument of Perigee(rad): 2.253207305 Mean Anom(rad): -0.4002865943 Af0(s): -0.0003798518555 Af1(s/s): -3.637979e-12 week: 149 ******** Week 149 almanac for PRN-30 ******** ID: 30 Health: 0 Eccentricity: 0.005511283874 Time of Applicability(s): 319488 Orbital Inclination(rad): 0.9358625039 Rate of Right Ascen(r/s): -8.240343243e-09 SQRT(A) (m 1/2): 5153.513184 Right Ascen at Week(rad): 1.23653345 Argument of Perigee(rad): -2.743589055 Mean Anom(rad): 2.901668472 Af0(s): -0.0004062304565 Af1(s/s): -3.637979e-12 week: 149 ******** Week 149 almanac for PRN-31 ******** ID: 31 Health: 0 Eccentricity: 0.01045703888 Time of Applicability(s): 319488 Orbital Inclination(rad): 0.9549174215 Rate of Right Ascen(r/s): -8.011762293e-09 SQRT(A) (m 1/2): 5153.628906 Right Ascen at Week(rad): 1.241520385 Argument of Perigee(rad): 0.3757855954 Mean Anom(rad): 2.411544383 Af0(s): -0.0001303856567 Af1(s/s): 0 week: 149 ******** Week 149 almanac for PRN-32 ******** ID: 32 Health: 0 Eccentricity: 0.005577087402 Time of Applicability(s): 319488 Orbital Inclination(rad): 0.9584527679 Rate of Right Ascen(r/s): -7.668890868e-09 SQRT(A) (m 1/2): 5153.734375 Right Ascen at Week(rad): 0.1629244141 Argument of Perigee(rad): -2.352892463 Mean Anom(rad): 0.1150773962 Af0(s): -5.426455078e-05 Af1(s/s): -7.275958e-12 week: 149